Track LEMUR 2 SCHMIDTFALL now! 10-day predictions LEMUR 2 SCHMIDTFALL is classified as:
1 46315U 20061AV 22141.45974563 .00026206 00000-0 13298-2 0 9992 2 46315 97.4513 213.9168 0001466 211.9882 148.1262 15.16897013 94512